When you browse on this site, cookies collect data to enhance your experience and personalize the content and advertising you see.
Visit our Privacy Policy to learn more. By continuing to use the site, you agree to this use of cookies and data.
  • In United Kingdom
  • List of Countries
  • For 7 days
  • Water Temperature
  • Satellite Maps
  • Weather Map
  • Weather Widgets
  • user-avatar
    Login

    Hourly Weather Brikama

    Today, 17 January, Thursday

    Time Temperature Precipitation Wind Pressure Humidity
    00:00 +25°C° 0 mm 5 mps 757 mmHg 52%
    01:00 +25°C° 0 mm 5 mps 757 mmHg 51%
    02:00 +25°C° 0 mm 5 mps 756 mmHg 51%
    03:00 +25°C° 0 mm 5 mps 756 mmHg 51%
    04:00 +23°C° 0 mm 5 mps 756 mmHg 51%
    05:00 +23°C° 0 mm 5 mps 756 mmHg 51%
    06:00 +25°C° 0 mm 4 mps 757 mmHg 48%
    07:00 +25°C° 0 mm 4 mps 757 mmHg 44%
    08:00 +26°C° 0 mm 4 mps 757 mmHg 41%
    09:00 +28°C° 0 mm 4 mps 757 mmHg 35%
    10:00 +29°C° 0 mm 3 mps 757 mmHg 29%
    11:00 +31°C° 0 mm 3 mps 758 mmHg 23%
    12:00 +33°C° 0 mm 4 mps 757 mmHg 22%
    13:00 +34°C° 0 mm 4 mps 756 mmHg 22%
    14:00 +35°C° 0 mm 4 mps 755 mmHg 22%
    15:00 +33°C° 0 mm 5 mps 755 mmHg 30%
    16:00 +32°C° 0 mm 5 mps 755 mmHg 38%
    17:00 +29°C° 0 mm 5 mps 755 mmHg 46%
    18:00 +28°C° 0 mm 6 mps 756 mmHg 50%
    19:00 +27°C° 0 mm 6 mps 756 mmHg 53%
    20:00 +26°C° 0 mm 6 mps 757 mmHg 57%
    21:00 +26°C° 0 mm 6 mps 757 mmHg 54%
    22:00 +26°C° 0 mm 6 mps 757 mmHg 50%
    23:00 +25°C° 0 mm 5 mps 757 mmHg 46%

    Tomorrow, 18 January, Friday

    Time Temperature Precipitation Wind Pressure Humidity
    00:00 +25°C° 0 mm 5 mps 757 mmHg 45%
    01:00 +24°C° 0 mm 6 mps 757 mmHg 43%
    02:00 +23°C° 0 mm 6 mps 757 mmHg 42%
    03:00 +23°C° 0 mm 6 mps 757 mmHg 40%
    04:00 +23°C° 0 mm 6 mps 757 mmHg 39%
    05:00 +23°C° 0 mm 6 mps 757 mmHg 37%
    06:00 +23°C° 0 mm 7 mps 757 mmHg 35%
    07:00 +23°C° 0 mm 7 mps 758 mmHg 32%
    08:00 +24°C° 0 mm 7 mps 758 mmHg 30%
    09:00 +27°C° 0 mm 7 mps 758 mmHg 25%
    10:00 +28°C° 0 mm 7 mps 758 mmHg 19%
    11:00 +30°C° 0 mm 6 mps 758 mmHg 14%
    12:00 +33°C° 0 mm 6 mps 758 mmHg 13%
    13:00 +34°C° 0 mm 6 mps 757 mmHg 11%
    14:00 +35°C° 0 mm 5 mps 756 mmHg 10%
    15:00 +35°C° 0 mm 5 mps 756 mmHg 12%
    16:00 +34°C° 0 mm 5 mps 756 mmHg 15%
    17:00 +33°C° 0 mm 5 mps 756 mmHg 17%
    18:00 +32°C° 0 mm 5 mps 756 mmHg 19%
    19:00 +30°C° 0 mm 5 mps 757 mmHg 21%
    20:00 +28°C° 0 mm 5 mps 757 mmHg 23%
    21:00 +28°C° 0 mm 6 mps 758 mmHg 23%
    22:00 +27°C° 0 mm 6 mps 758 mmHg 23%
    23:00 +27°C° 0 mm 6 mps 758 mmHg 23%

    Day after tomorrow, 19 January, Saturday

    Time Temperature Precipitation Wind Pressure Humidity
    00:00 +26°C° 0 mm 7 mps 758 mmHg 24%
    01:00 +24°C° 0 mm 8 mps 758 mmHg 24%
    02:00 +24°C° 0 mm 8 mps 757 mmHg 24%
    03:00 +23°C° 0 mm 8 mps 757 mmHg 25%
    04:00 +23°C° 0 mm 8 mps 758 mmHg 27%
    05:00 +22°C° 0 mm 8 mps 758 mmHg 28%
    06:00 +22°C° 0 mm 8 mps 758 mmHg 27%
    07:00 +22°C° 0 mm 8 mps 759 mmHg 27%
    08:00 +23°C° 0 mm 9 mps 759 mmHg 26%
    09:00 +24°C° 0 mm 8 mps 759 mmHg 24%
    10:00 +27°C° 0 mm 8 mps 759 mmHg 22%
    11:00 +29°C° 0 mm 7 mps 759 mmHg 20%
    12:00 +30°C° 0 mm 7 mps 758 mmHg 18%
    13:00 +32°C° 0 mm 6 mps 758 mmHg 16%
    14:00 +34°C° 0 mm 6 mps 757 mmHg 15%
    15:00 +33°C° 0 mm 6 mps 757 mmHg 15%
    16:00 +33°C° 0 mm 5 mps 756 mmHg 16%
    17:00 +33°C° 0 mm 5 mps 756 mmHg 16%
    18:00 +30°C° 0 mm 5 mps 757 mmHg 18%
    19:00 +29°C° 0 mm 5 mps 757 mmHg 21%
    20:00 +27°C° 0 mm 4 mps 758 mmHg 23%
    21:00 +27°C° 0 mm 5 mps 758 mmHg 23%
    22:00 +26°C° 0 mm 5 mps 758 mmHg 24%
    23:00 +26°C° 0 mm 6 mps 759 mmHg 24%

    20 January, Sunday

    Time Temperature Precipitation Wind Pressure Humidity
    00:00 +24°C° 0 mm 6 mps 758 mmHg 23%
    01:00 +24°C° 0 mm 6 mps 758 mmHg 22%
    02:00 +23°C° 0 mm 7 mps 758 mmHg 21%
    03:00 +23°C° 0 mm 7 mps 758 mmHg 21%
    04:00 +22°C° 0 mm 7 mps 758 mmHg 21%
    05:00 +22°C° 0 mm 7 mps 758 mmHg 22%
    06:00 +22°C° 0 mm 7 mps 758 mmHg 21%
    07:00 +22°C° 0 mm 7 mps 759 mmHg 21%
    08:00 +22°C° 0 mm 7 mps 759 mmHg 20%
    09:00 +26°C° 0 mm 7 mps 759 mmHg 18%
    10:00 +28°C° 0 mm 6 mps 759 mmHg 16%
    11:00 +30°C° 0 mm 6 mps 759 mmHg 14%
    12:00 +33°C° 0 mm 5 mps 758 mmHg 13%
    13:00 +34°C° 0 mm 5 mps 758 mmHg 12%
    14:00 +35°C° 0 mm 4 mps 757 mmHg 10%
    15:00 +35°C° 0 mm 4 mps 757 mmHg 11%
    16:00 +34°C° 0 mm 4 mps 757 mmHg 12%
    17:00 +34°C° 0 mm 4 mps 757 mmHg 13%
    18:00 +32°C° 0 mm 4 mps 757 mmHg 22%
    19:00 +29°C° 0 mm 4 mps 758 mmHg 31%
    20:00 +27°C° 0 mm 5 mps 758 mmHg 40%
    21:00 +26°C° 0 mm 5 mps 759 mmHg 38%
    22:00 +26°C° 0 mm 4 mps 759 mmHg 36%
    23:00 +26°C° 0 mm 4 mps 759 mmHg 34%

    21 January, Monday

    Time Temperature Precipitation Wind Pressure Humidity
    00:00 +25°C° 0 mm 5 mps 759 mmHg 29%
    01:00 +25°C° 0 mm 5 mps 758 mmHg 23%
    02:00 +23°C° 0 mm 5 mps 758 mmHg 18%
    03:00 +23°C° 0 mm 6 mps 758 mmHg 16%
    04:00 +23°C° 0 mm 6 mps 758 mmHg 15%
    05:00 +23°C° 0 mm 6 mps 758 mmHg 13%
    06:00 +23°C° 0 mm 6 mps 758 mmHg 13%
    07:00 +23°C° 0 mm 7 mps 759 mmHg 12%
    08:00 +23°C° 0 mm 7 mps 759 mmHg 12%
    09:00 +26°C° 0 mm 7 mps 759 mmHg 11%
    10:00 +29°C° 0 mm 6 mps 759 mmHg 9%
    11:00 +32°C° 0 mm 6 mps 759 mmHg 8%
    12:00 +33°C° 0 mm 5 mps 758 mmHg 8%
    13:00 +34°C° 0 mm 5 mps 757 mmHg 7%
    14:00 +36°C° 0 mm 4 mps 757 mmHg 7%
    15:00 +35°C° 0 mm 4 mps 756 mmHg 8%
    16:00 +35°C° 0 mm 4 mps 756 mmHg 9%
    17:00 +34°C° 0 mm 4 mps 756 mmHg 11%
    18:00 +32°C° 0 mm 4 mps 757 mmHg 17%
    19:00 +29°C° 0 mm 4 mps 757 mmHg 24%
    20:00 +27°C° 0 mm 4 mps 758 mmHg 30%
    21:00 +27°C° 0 mm 4 mps 758 mmHg 26%
    22:00 +26°C° 0 mm 4 mps 758 mmHg 21%
    23:00 +26°C° 0 mm 5 mps 758 mmHg 17%

    22 January, Tuesday

    Time Temperature Precipitation Wind Pressure Humidity
    00:00 +26°C° 0 mm 5 mps 758 mmHg 16%
    01:00 +25°C° 0 mm 5 mps 758 mmHg 15%
    02:00 +24°C° 0 mm 6 mps 757 mmHg 14%
    03:00 +23°C° 0 mm 6 mps 757 mmHg 14%
    04:00 +23°C° 0 mm 6 mps 758 mmHg 14%
    05:00 +22°C° 0 mm 6 mps 758 mmHg 14%
    06:00 +22°C° 0 mm 6 mps 758 mmHg 14%
    07:00 +23°C° 0 mm 6 mps 758 mmHg 13%
    08:00 +23°C° 0 mm 6 mps 759 mmHg 13%
    09:00 +26°C° 0 mm 6 mps 759 mmHg 11%
    10:00 +28°C° 0 mm 6 mps 758 mmHg 9%
    11:00 +32°C° 0 mm 6 mps 758 mmHg 7%
    12:00 +33°C° 0 mm 5 mps 757 mmHg 7%
    13:00 +34°C° 0 mm 5 mps 757 mmHg 7%
    14:00 +35°C° 0 mm 4 mps 756 mmHg 6%
    15:00 +34°C° 0 mm 4 mps 756 mmHg 8%
    16:00 +34°C° 0 mm 4 mps 755 mmHg 11%
    17:00 +33°C° 0 mm 4 mps 755 mmHg 13%
    18:00 +30°C° 0 mm 4 mps 756 mmHg 23%
    19:00 +28°C° 0 mm 4 mps 756 mmHg 33%
    20:00 +26°C° 0 mm 5 mps 756 mmHg 43%
    21:00 +26°C° 0 mm 5 mps 756 mmHg 40%
    22:00 +26°C° 0 mm 5 mps 757 mmHg 38%
    23:00 +26°C° 0 mm 5 mps 757 mmHg 35%
    Show more